SCP
-0 -1 -1 -1 -0 -0 -0 -0 -0 -0 -0 -0 -0 -0 -0 -0 -0 0 0 0 0 -0 -0 -0 -0 -0 0 -0 -0 0 0 0 0 0 0 0 0 0 0 0 0 0 0
-1 -1 -1 -1 -1 -0 -0 -0 -0 -0 -0 -0 -0 -0 -0 -0 0 0 0 0 0 0 0 0 -0 -0 -0 -0 0 0 0 0 0 0 0 0 0 0 0 0 0 0 0
-0 -0 -0 -1 -1 -0 -0 -0 -0 -0 -0 -0 -0 -0 -0 -0 0 0 0 0 0 0 0 0 0 -0 -0 0 0 0 0 0 0 0 0 0 0 0 0 0 0 0 0
-0 -0 -0 -0 -0 -0 -0 -0 -0 -0 -0 -0 -0 -0 -0 -0 -0 0 0 0 0 0 0 0 -0 -0 -0 0 0 0 0 0 0 0 0 0 0 0 0 0 0 0 0
0 -0 -0 0 -0 -0 -0 -0 -0 -0 -0 -0 -0 -0 -0 -0 0 0 0 0 0 0 0 -0 -0 -0 -0 0 0 0 0 0 0 -0 0 -0 -0 0 0 0 0 0 0
0 0 0 0 0 0 -0 -0 0 -0 -0 -0 -0 -0 -0 -0 -0 0 0 0 0 0 0 0 0 0 -0 -0 -0 0 0 -0 -0 -0 0 0 0 0 0 0 0 0 0
0 0 0 0 0 0 0 0 0 0 0 -0 -0 -0 0 -0 -0 0 0 0 0 0 -0 -0 0 -0 -0 0 -0 -0 -0 -0 -0 -0 -0 0 0 0 0 0 0 0 0
0 0 0 0 0 0 1 0 0 0 0 0 0 -0 -0 -0 -0 -0 -0 -0 -0 -0 -0 -0 -0 -0 -0 -0 -0 -0 -0 -0 -0 -0 -0 -0 0 0 0 0 0 1 0
0 0 1 0 0 1 1 1 1 1 1 0 0 0 -0 -0 -0 -0 -0 -0 -0 -0 -0 -0 -0 -0 -0 -0 -0 -0 -0 -0 -0 -0 -0 0 0 0 0 0 0 0 1
0 0 0 0 0 0 0 1 1 1 1 1 0 0 0 -0 -0 -0 -0 -0 0 0 0 0 0 -0 0 0 0 0 0 0 0 0 0 0 0 0 0 0 0 0 1
0 0 0 0 0 0 0 0 1 1 1 1 0 0 0 -0 -0 -0 -0 0 0 0 0 0 0 0 -0 0 0 0 0 0 0 0 -0 0 0 0 0 0 0 0 1
0 0 0 0 0 0 0 0 0 0 0 0 0 0 -0 -0 -0 -0 -0 0 0 0 0 0 0 0 0 -0 0 0 0 0 0 -0 0 0 0 0 0 0 0 0 1
0 0 0 1 1 0 0 0 1 0 0 0 0 0 0 0 0 0 0 0 0 0 0 0 0 0 0 -0 -0 0 0 0 -0 0 0 0 0 0 0 0 0 0 0
0 0 0 1 2 2 0 0 1 0 0 0 0 1 1 1 1 0 0 0 0 0 0 0 0 0 0 0 0 0 0 -0 -0 0 0 0 0 0 0 0 0 0 0
0 0 1 1 3 4 1 1 1 1 1 0 1 1 1 1 2 1 1 0 0 0 0 0 0 0 0 0 0 0 0 0 0 0 0 0 0 0 0 0 0 0 0
0 0 1 1 4 3 4 3 4 5 1 1 1 1 2 3 3 1 1 0 0 0 0 0 0 0 0 0 0 0 0 0 0 0 0 0 0 0 0 0 0 0 0
0 0 0 2 2 4 3 3 4 3 3 2 2 2 3 4 5 3 2 2 1 1 1 1 0 0 0 0 0 0 0 0 0 0 0 0 0 0 1 0 0 0 -0
0 0 0 1 1 3 4 4 2 3 3 3 3 3 3 3 5 4 3 2 3 4 2 1 0 0 0 0 1 1 1 1 1 1 1 0 0 0 1 1 0 0 -0
0 0 0 0 1 2 4 3 3 2 3 2 3 3 4 4 4 5 3 2 3 2 2 1 1 1 1 1 0 1 1 1 1 1 1 1 1 1 2 1 1 0 0
0 0 0 0 1 2 4 5 3 3 3 2 3 4 3 5 4 5 4 4 4 4 2 1 2 1 1 1 0 0 2 1 1 1 1 1 1 2 2 2 1 1 0
0 0 0 0 1 2 1 2 3 3 2 3 3 3 4 6 4 4 4 5 7 5 3 3 4 4 2 2 2 1 1 3 2 1 1 1 2 2 4 3 1 1 1
0 0 0 0 0 1 1 2 2 2 2 3 3 4 7 8 6 6 5 7 6 7 7 4 5 5 4 5 4 2 1 1 4 3 1 2 3 2 3 3 2 3 2
0 0 0 0 1 1 1 1 4 4 5 3 4 5 5 7 9 7 5 7 7 7 5 13 10 8 4 5 5 4 4 3 5 4 4 3 4 3 2 2 4 3 1
0 0 0 0 0 0 1 1 2 3 4 4 5 6 8 6 7 6 5 4 3 5 4 7 9 5 4 3 4 5 7 8 6 3 4 6 6 6 7 3 3 1 -0
0 0 0 0 1 1 1 1 1 2 2 4 6 7 9 9 7 6 5 5 4 9 7 7 7 7 5 4 8 7 8 4 6 4 3 3 5 4 2 1 0 0 1
0 0 0 0 1 1 1 1 2 3 4 4 6 8 10 9 10 8 5 7 8 7 9 6 9 7 6 5 8 8 4 4 2 2 2 1 1 1 1 0 0 0 0
Wind_Speed_500mb
29 43 40 40 41 41 40 37 37 35 33 34 30 25 22 24 26 30 32 33 31 28 25 21 20 19 20 21 23 25 24 23 22 22 22 22 21 20 19 20 25 7 10
39 44 43 42 45 45 42 39 35 35 32 33 28 23 22 26 28 30 31 30 27 25 22 20 19 19 22 23 22 22 20 20 18 18 21 24 19 17 16 17 18 9 12
37 43 43 43 46 49 44 41 38 35 33 33 28 23 23 26 28 29 29 27 24 22 20 19 19 19 20 21 20 17 16 15 15 21 27 12 9 13 14 14 13 13 13
33 41 44 45 45 47 45 42 39 37 35 33 28 23 24 27 28 29 28 25 23 20 18 18 17 18 18 17 16 15 13 11 13 20 21 3 4 12 10 13 14 13 12
28 36 42 45 45 45 45 42 40 39 39 37 31 25 24 26 27 27 27 25 22 20 18 17 16 16 16 15 14 13 11 9 9 17 9 2 1 15 11 8 9 13 15
26 31 36 45 46 44 44 42 42 43 43 41 35 28 26 27 28 28 26 25 23 20 18 16 14 13 12 11 10 8 6 5 6 12 5 11 7 17 11 7 7 8 9
25 28 29 44 44 44 42 41 39 44 46 44 39 31 27 28 30 29 28 25 23 22 19 17 15 12 11 9 7 6 5 4 4 3 10 9 15 13 10 8 7 7 6
25 30 28 43 44 43 41 39 39 40 46 47 43 37 31 30 31 31 30 27 25 23 20 18 15 13 11 9 8 8 7 6 6 9 10 8 20 14 10 10 10 11 10
24 29 26 43 44 45 43 40 38 39 44 47 46 43 37 34 35 34 31 29 27 24 22 19 16 13 11 10 9 8 9 8 2 4 9 9 20 17 12 12 11 13 15
22 24 24 35 44 46 46 44 42 41 43 47 46 46 43 39 39 38 35 32 30 27 24 22 19 15 13 12 11 12 13 11 8 5 14 20 15 13 13 13 14 16 18
21 26 25 28 34 37 37 46 46 46 48 50 50 51 49 44 43 43 38 35 32 30 28 25 21 18 16 14 13 15 17 14 13 14 9 28 19 15 14 14 16 18 20
24 26 28 30 34 36 36 37 48 51 52 54 56 56 55 47 34 34 32 39 37 35 31 28 25 22 18 14 22 24 21 7 15 15 15 25 18 15 16 16 18 18 18
31 32 34 35 37 37 36 36 33 41 44 52 57 57 56 42 37 36 30 39 40 38 35 31 28 25 19 14 15 20 15 15 10 12 20 24 18 16 16 16 17 19 19
36 39 37 38 42 45 39 40 36 42 42 45 48 60 52 54 45 40 38 28 41 33 38 26 23 21 19 24 24 22 19 17 12 13 20 27 18 16 17 19 18 18 19
30 41 43 42 48 54 55 43 45 44 47 45 48 58 62 54 49 46 41 36 32 33 30 29 27 25 24 22 20 20 17 17 19 16 15 29 23 22 18 20 20 19 18
33 32 41 45 50 49 56 59 54 56 50 51 52 56 68 63 62 51 49 43 37 33 33 29 27 25 23 20 21 21 21 19 19 19 17 23 30 29 23 20 20 19 15
26 30 34 42 46 53 49 52 65 61 62 53 57 57 68 76 68 74 58 52 46 40 37 36 34 31 27 23 26 25 23 22 21 22 22 19 24 30 17 14 15 12 15
17 17 21 33 41 50 52 52 51 54 55 56 57 59 72 74 80 77 66 64 62 51 45 37 35 31 26 25 24 24 23 22 25 26 24 24 21 21 14 12 12 8 11
19 18 20 26 37 43 51 51 54 51 59 57 64 71 75 79 83 86 78 47 53 44 51 38 34 36 28 31 31 29 27 30 28 25 23 29 24 26 22 20 15 6 12
26 25 29 31 30 45 55 56 50 55 60 64 72 71 71 80 80 83 84 80 66 57 52 44 44 44 38 34 31 28 31 32 29 32 27 27 23 30 29 23 22 28 19
33 30 33 29 30 33 41 48 50 55 55 67 74 72 71 74 75 81 91 84 84 83 59 55 58 57 52 50 39 34 40 40 36 34 30 29 27 31 31 25 17 18 18
39 44 44 40 37 39 36 49 56 54 56 61 65 74 70 72 80 84 83 81 83 79 67 71 67 67 63 52 49 36 38 37 36 35 33 33 30 28 36 30 21 18 25
40 43 50 52 47 44 38 42 54 60 63 63 64 67 77 85 89 91 87 91 88 83 88 89 78 74 65 56 65 43 29 44 41 26 30 39 30 30 26 35 37 46 48
37 40 43 53 60 56 49 46 51 66 70 75 69 67 71 80 91 89 86 88 96 97 93 84 79 78 67 56 43 54 59 45 26 28 30 37 40 38 39 38 37 48 40
43 40 42 44 46 57 66 69 58 61 72 76 71 72 74 74 81 88 80 80 102 104 89 83 82 82 77 65 59 48 62 62 56 51 39 42 61 60 64 75 68 87 55
42 41 40 43 44 50 55 66 67 71 72 69 79 80 75 76 80 80 83 84 89 110 105 86 88 78 67 59 65 55 58 54 55 56 48 52 61 75 84 91 94 87 64
Wind_Direction_500mb
152 159 163 165 167 165 165 164 163 159 157 155 150 143 144 148 145 142 141 140 139 142 143 142 137 129 123 122 121 117 110 106 102 97 90 83 81 83 85 90 80 37 56
158 162 162 166 169 172 173 173 172 171 165 163 154 146 147 152 151 152 147 145 146 149 150 143 139 133 129 129 126 121 115 106 94 86 80 61 65 74 82 87 104 99 67
157 162 164 167 171 176 179 181 180 179 176 172 162 153 155 160 161 157 155 154 156 159 151 145 140 137 134 134 130 124 117 111 99 82 72 87 5 52 74 80 82 79 74
159 162 167 170 173 179 183 188 188 188 186 182 173 164 165 168 168 166 165 166 166 162 154 146 145 141 141 140 137 131 124 119 107 89 61 68 323 356 47 69 66 60 74
157 164 173 173 176 179 188 194 195 198 195 190 182 176 177 177 177 175 174 174 172 167 162 158 157 153 152 152 152 149 142 131 114 85 55 1 92 285 338 26 61 54 44
160 167 179 179 179 182 186 192 202 205 202 198 192 187 187 186 186 183 182 179 176 174 169 167 167 165 165 166 165 161 161 167 114 53 311 309 51 275 294 335 16 37 37
168 174 194 185 184 186 187 190 194 204 203 203 201 200 199 198 196 192 189 186 185 181 178 172 173 174 181 183 183 196 199 222 165 291 278 286 266 290 292 299 323 340 348
178 179 211 192 191 191 192 192 194 198 201 204 208 209 209 210 207 203 197 194 195 192 187 184 182 188 195 203 207 217 223 234 201 323 273 277 275 297 289 292 298 308 307
186 182 200 197 197 196 198 198 197 196 206 208 212 216 217 219 216 211 206 203 203 202 198 196 197 203 216 229 242 254 264 268 215 230 278 301 273 290 277 286 298 302 300
190 190 195 193 203 202 205 204 204 203 205 212 218 222 224 224 222 218 211 210 212 211 209 208 209 212 228 242 254 264 270 269 283 226 278 257 291 297 289 292 299 305 305
202 199 201 200 203 201 208 213 208 210 212 215 218 226 228 229 228 225 217 215 218 219 217 216 219 224 235 250 272 285 283 277 268 276 249 262 289 295 302 304 305 308 307
217 213 210 205 203 203 205 219 218 214 217 217 219 222 225 225 218 219 227 225 217 220 225 225 226 230 238 257 297 306 292 268 264 256 257 273 292 304 308 313 312 310 310
229 224 216 212 208 205 206 213 217 214 216 219 218 218 219 216 213 223 219 234 226 225 228 231 236 241 250 246 243 280 279 253 250 259 254 283 300 309 308 309 308 304 303
243 228 221 217 212 211 204 214 219 211 218 216 218 221 211 206 211 211 208 221 226 224 229 230 240 246 254 246 245 235 242 240 241 245 265 279 291 298 297 303 307 296 293
257 228 224 218 222 217 205 211 216 219 217 217 217 222 211 210 207 214 212 207 222 212 232 216 226 238 246 249 246 249 240 244 248 254 258 281 288 286 288 294 303 300 287
245 244 230 225 224 226 227 209 219 214 214 217 219 219 221 211 210 210 208 212 212 216 216 224 225 233 256 247 253 240 242 248 260 261 262 276 292 295 284 289 297 296 288
251 247 240 227 227 233 227 236 216 222 219 222 221 224 231 216 213 218 215 210 208 213 211 221 217 228 233 245 241 239 246 254 257 268 271 270 281 289 281 270 271 277 279
256 249 233 231 233 230 232 236 228 223 222 215 223 221 230 230 219 222 212 217 216 204 226 221 230 229 229 236 243 243 251 256 255 259 266 264 268 247 233 211 240 255 271
269 274 258 244 237 236 241 232 237 228 225 226 222 222 225 235 227 226 223 223 220 217 216 224 225 235 228 230 237 243 249 253 257 261 255 259 268 216 203 241 211 259 352
272 281 283 273 246 246 232 245 234 232 232 229 226 225 231 230 234 225 227 222 225 226 229 223 225 227 226 237 242 250 248 249 256 266 256 252 246 225 216 211 256 273 300
277 284 291 283 280 243 247 237 241 235 232 230 230 226 225 227 230 231 222 220 231 236 238 239 244 241 244 238 230 249 245 254 265 259 260 243 236 236 227 271 280 228 287
286 290 291 282 284 276 251 250 243 244 239 241 236 233 225 225 226 227 227 215 227 227 227 231 235 242 242 236 237 235 248 262 236 266 253 242 228 221 232 262 253 290 301
288 288 286 287 283 280 267 251 249 247 244 241 237 236 231 224 227 230 231 217 222 222 232 229 229 235 236 240 221 215 246 236 242 244 256 227 238 233 237 254 278 292 299
298 294 294 282 279 279 278 265 253 247 245 241 237 235 232 231 229 233 232 226 218 227 230 235 232 236 246 224 226 229 226 239 222 233 243 238 235 235 243 274 281 305 297
300 300 299 295 288 281 280 273 259 257 252 247 242 239 235 229 233 229 229 224 219 219 228 221 229 239 236 230 216 227 227 235 240 240 242 243 249 247 254 254 267 276 289
301 298 301 304 298 286 275 272 268 260 250 248 242 237 233 229 233 234 223 226 223 226 221 231 227 228 224 238 217 219 232 230 240 240 242 250 255 261 263 278 278 275 278
Wind_Speed_850mb
29 43 40 40 41 41 40 37 37 35 33 34 30 25 22 24 26 30 32 33 31 28 25 21 20 19 20 21 23 25 24 23 22 22 22 22 21 20 19 20 25 7 10
39 44 43 42 45 45 42 39 35 35 32 33 28 23 22 26 28 30 31 30 27 25 22 20 19 19 22 23 22 22 20 20 18 18 21 24 19 17 16 17 18 9 12
37 43 43 43 46 49 44 41 38 35 33 33 28 23 23 26 28 29 29 27 24 22 20 19 19 19 20 21 20 17 16 15 15 21 27 12 9 13 14 14 13 13 13
33 41 44 45 45 47 45 42 39 37 35 33 28 23 24 27 28 29 28 25 23 20 18 18 17 18 18 17 16 15 13 11 13 20 21 3 4 12 10 13 14 13 12
28 36 42 45 45 45 45 42 40 39 39 37 31 25 24 26 27 27 27 25 22 20 18 17 16 16 16 15 14 13 11 9 9 17 9 2 1 15 11 8 9 13 15
26 31 36 45 46 44 44 42 42 43 43 41 35 28 26 27 28 28 26 25 23 20 18 16 14 13 12 11 10 8 6 5 6 12 5 11 7 17 11 7 7 8 9
25 28 29 44 44 44 42 41 39 44 46 44 39 31 27 28 30 29 28 25 23 22 19 17 15 12 11 9 7 6 5 4 4 3 10 9 15 13 10 8 7 7 6
25 30 28 43 44 43 41 39 39 40 46 47 43 37 31 30 31 31 30 27 25 23 20 18 15 13 11 9 8 8 7 6 6 9 10 8 20 14 10 10 10 11 10
24 29 26 43 44 45 43 40 38 39 44 47 46 43 37 34 35 34 31 29 27 24 22 19 16 13 11 10 9 8 9 8 2 4 9 9 20 17 12 12 11 13 15
22 24 24 35 44 46 46 44 42 41 43 47 46 46 43 39 39 38 35 32 30 27 24 22 19 15 13 12 11 12 13 11 8 5 14 20 15 13 13 13 14 16 18
21 26 25 28 34 37 37 46 46 46 48 50 50 51 49 44 43 43 38 35 32 30 28 25 21 18 16 14 13 15 17 14 13 14 9 28 19 15 14 14 16 18 20
24 26 28 30 34 36 36 37 48 51 52 54 56 56 55 47 34 34 32 39 37 35 31 28 25 22 18 14 22 24 21 7 15 15 15 25 18 15 16 16 18 18 18
31 32 34 35 37 37 36 36 33 41 44 52 57 57 56 42 37 36 30 39 40 38 35 31 28 25 19 14 15 20 15 15 10 12 20 24 18 16 16 16 17 19 19
36 39 37 38 42 45 39 40 36 42 42 45 48 60 52 54 45 40 38 28 41 33 38 26 23 21 19 24 24 22 19 17 12 13 20 27 18 16 17 19 18 18 19
30 41 43 42 48 54 55 43 45 44 47 45 48 58 62 54 49 46 41 36 32 33 30 29 27 25 24 22 20 20 17 17 19 16 15 29 23 22 18 20 20 19 18
33 32 41 45 50 49 56 59 54 56 50 51 52 56 68 63 62 51 49 43 37 33 33 29 27 25 23 20 21 21 21 19 19 19 17 23 30 29 23 20 20 19 15
26 30 34 42 46 53 49 52 65 61 62 53 57 57 68 76 68 74 58 52 46 40 37 36 34 31 27 23 26 25 23 22 21 22 22 19 24 30 17 14 15 12 15
17 17 21 33 41 50 52 52 51 54 55 56 57 59 72 74 80 77 66 64 62 51 45 37 35 31 26 25 24 24 23 22 25 26 24 24 21 21 14 12 12 8 11
19 18 20 26 37 43 51 51 54 51 59 57 64 71 75 79 83 86 78 47 53 44 51 38 34 36 28 31 31 29 27 30 28 25 23 29 24 26 22 20 15 6 12
26 25 29 31 30 45 55 56 50 55 60 64 72 71 71 80 80 83 84 80 66 57 52 44 44 44 38 34 31 28 31 32 29 32 27 27 23 30 29 23 22 28 19
33 30 33 29 30 33 41 48 50 55 55 67 74 72 71 74 75 81 91 84 84 83 59 55 58 57 52 50 39 34 40 40 36 34 30 29 27 31 31 25 17 18 18
39 44 44 40 37 39 36 49 56 54 56 61 65 74 70 72 80 84 83 81 83 79 67 71 67 67 63 52 49 36 38 37 36 35 33 33 30 28 36 30 21 18 25
40 43 50 52 47 44 38 42 54 60 63 63 64 67 77 85 89 91 87 91 88 83 88 89 78 74 65 56 65 43 29 44 41 26 30 39 30 30 26 35 37 46 48
37 40 43 53 60 56 49 46 51 66 70 75 69 67 71 80 91 89 86 88 96 97 93 84 79 78 67 56 43 54 59 45 26 28 30 37 40 38 39 38 37 48 40
43 40 42 44 46 57 66 69 58 61 72 76 71 72 74 74 81 88 80 80 102 104 89 83 82 82 77 65 59 48 62 62 56 51 39 42 61 60 64 75 68 87 55
42 41 40 43 44 50 55 66 67 71 72 69 79 80 75 76 80 80 83 84 89 110 105 86 88 78 67 59 65 55 58 54 55 56 48 52 61 75 84 91 94 87 64
Wind_Direction_850mb
152 159 163 165 167 165 165 164 163 159 157 155 150 143 144 148 145 142 141 140 139 142 143 142 137 129 123 122 121 117 110 106 102 97 90 83 81 83 85 90 80 37 56
158 162 162 166 169 172 173 173 172 171 165 163 154 146 147 152 151 152 147 145 146 149 150 143 139 133 129 129 126 121 115 106 94 86 80 61 65 74 82 87 104 99 67
157 162 164 167 171 176 179 181 180 179 176 172 162 153 155 160 161 157 155 154 156 159 151 145 140 137 134 134 130 124 117 111 99 82 72 87 5 52 74 80 82 79 74
159 162 167 170 173 179 183 188 188 188 186 182 173 164 165 168 168 166 165 166 166 162 154 146 145 141 141 140 137 131 124 119 107 89 61 68 323 356 47 69 66 60 74
157 164 173 173 176 179 188 194 195 198 195 190 182 176 177 177 177 175 174 174 172 167 162 158 157 153 152 152 152 149 142 131 114 85 55 1 92 285 338 26 61 54 44
160 167 179 179 179 182 186 192 202 205 202 198 192 187 187 186 186 183 182 179 176 174 169 167 167 165 165 166 165 161 161 167 114 53 311 309 51 275 294 335 16 37 37
168 174 194 185 184 186 187 190 194 204 203 203 201 200 199 198 196 192 189 186 185 181 178 172 173 174 181 183 183 196 199 222 165 291 278 286 266 290 292 299 323 340 348
178 179 211 192 191 191 192 192 194 198 201 204 208 209 209 210 207 203 197 194 195 192 187 184 182 188 195 203 207 217 223 234 201 323 273 277 275 297 289 292 298 308 307
186 182 200 197 197 196 198 198 197 196 206 208 212 216 217 219 216 211 206 203 203 202 198 196 197 203 216 229 242 254 264 268 215 230 278 301 273 290 277 286 298 302 300
190 190 195 193 203 202 205 204 204 203 205 212 218 222 224 224 222 218 211 210 212 211 209 208 209 212 228 242 254 264 270 269 283 226 278 257 291 297 289 292 299 305 305
202 199 201 200 203 201 208 213 208 210 212 215 218 226 228 229 228 225 217 215 218 219 217 216 219 224 235 250 272 285 283 277 268 276 249 262 289 295 302 304 305 308 307
217 213 210 205 203 203 205 219 218 214 217 217 219 222 225 225 218 219 227 225 217 220 225 225 226 230 238 257 297 306 292 268 264 256 257 273 292 304 308 313 312 310 310
229 224 216 212 208 205 206 213 217 214 216 219 218 218 219 216 213 223 219 234 226 225 228 231 236 241 250 246 243 280 279 253 250 259 254 283 300 309 308 309 308 304 303
243 228 221 217 212 211 204 214 219 211 218 216 218 221 211 206 211 211 208 221 226 224 229 230 240 246 254 246 245 235 242 240 241 245 265 279 291 298 297 303 307 296 293
257 228 224 218 222 217 205 211 216 219 217 217 217 222 211 210 207 214 212 207 222 212 232 216 226 238 246 249 246 249 240 244 248 254 258 281 288 286 288 294 303 300 287
245 244 230 225 224 226 227 209 219 214 214 217 219 219 221 211 210 210 208 212 212 216 216 224 225 233 256 247 253 240 242 248 260 261 262 276 292 295 284 289 297 296 288
251 247 240 227 227 233 227 236 216 222 219 222 221 224 231 216 213 218 215 210 208 213 211 221 217 228 233 245 241 239 246 254 257 268 271 270 281 289 281 270 271 277 279
256 249 233 231 233 230 232 236 228 223 222 215 223 221 230 230 219 222 212 217 216 204 226 221 230 229 229 236 243 243 251 256 255 259 266 264 268 247 233 211 240 255 271
269 274 258 244 237 236 241 232 237 228 225 226 222 222 225 235 227 226 223 223 220 217 216 224 225 235 228 230 237 243 249 253 257 261 255 259 268 216 203 241 211 259 352
272 281 283 273 246 246 232 245 234 232 232 229 226 225 231 230 234 225 227 222 225 226 229 223 225 227 226 237 242 250 248 249 256 266 256 252 246 225 216 211 256 273 300
277 284 291 283 280 243 247 237 241 235 232 230 230 226 225 227 230 231 222 220 231 236 238 239 244 241 244 238 230 249 245 254 265 259 260 243 236 236 227 271 280 228 287
286 290 291 282 284 276 251 250 243 244 239 241 236 233 225 225 226 227 227 215 227 227 227 231 235 242 242 236 237 235 248 262 236 266 253 242 228 221 232 262 253 290 301
288 288 286 287 283 280 267 251 249 247 244 241 237 236 231 224 227 230 231 217 222 222 232 229 229 235 236 240 221 215 246 236 242 244 256 227 238 233 237 254 278 292 299
298 294 294 282 279 279 278 265 253 247 245 241 237 235 232 231 229 233 232 226 218 227 230 235 232 236 246 224 226 229 226 239 222 233 243 238 235 235 243 274 281 305 297
300 300 299 295 288 281 280 273 259 257 252 247 242 239 235 229 233 229 229 224 219 219 228 221 229 239 236 230 216 227 227 235 240 240 242 243 249 247 254 254 267 276 289
301 298 301 304 298 286 275 272 268 260 250 248 242 237 233 229 233 234 223 226 223 226 221 231 227 228 224 238 217 219 232 230 240 240 242 250 255 261 263 278 278 275 278